Rockingham, NC

7:43 AM EDT on April 23, 2017 (GMT -0400)
Rockingham

Weather History for KRCZ - March, 2013

Change the Weather History Date:

Monday, March 4, 2013

  Actual Average (KHFF) Record (KHFF)
Temperature  
Mean Temperature 38 °F -  
Max Temperature 52 °F 54 °F 80 °F (2004)
Min Temperature 24 °F 36 °F 17 °F (2009)
Degree Days  
Heating Degree Days 27    
Moisture  
Dew Point 18 °F    
Average Humidity 45    
Maximum Humidity 81    
Minimum Humidity 22    
Precipitation  
Precipitation 0.00 in - - ()
Sea Level Pressure  
Sea Level Pressure 30.08 in    
Wind  
Wind Speed 6 mph (WNW)    
Max Wind Speed 15 mph    
Max Gust Speed 21 mph    
Visibility 10 miles    
Events      
Averages and records for this station are not official NWS values.
T = Trace of Precipitation, MM = Missing Value Source: NWS Daily Summary

Daily Weather History Graph

Daily Weather History Graph

Search for Another Location

Airport or City:

Trip Planner

Search our weather history database for the weather conditions in past years. The results will help you decide how hot, cold, wet, or windy it might be!

Date:

Astronomy

Mar. 04, 2013 Rise Set
Actual Time 6:44 AM EST 6:17 PM EST
Civil Twilight 6:18 AM EST 6:42 PM EST
Nautical Twilight 5:49 AM EST 7:12 PM EST
Astronomical Twilight 5:20 AM EST 7:41 PM EST
Moon 12:42 AM EST (3/4) 11:07 AM EST (3/4)
Length of Visible Light 12h 24m
Length of Day
11h 33m
Waning Gibbous, 52% of the Moon is Illuminated
Mar 4
Waning Gibbous
Mar 4
Last Quarter
Mar 11
New
Mar 19
First Quarter
Mar 27
Full

Hourly Weather History & Observations

Time (EST) Temp. Windchill Dew Point Humidity Pressure Visibility Wind Dir Wind Speed Gust Speed Precip Events Conditions
12:15 AM 32.9 °F 28.5 °F 18.1 °F 55% 29.99 in 10.0 mi NNW 4.6 mph - N/A   Clear
12:35 AM 32.4 °F 26.9 °F 18.0 °F 55% 30.00 in 10.0 mi NNW 5.8 mph - N/A   Clear
12:55 AM 32.4 °F 25.3 °F 17.4 °F 54% 30.00 in 10.0 mi NNW 8.1 mph - N/A   Clear
1:15 AM 32.0 °F 24.2 °F 17.1 °F 54% 30.00 in 10.0 mi NNW 9.2 mph - N/A   Clear
1:35 AM 32.0 °F 26.4 °F 17.1 °F 54% 30.01 in 10.0 mi NNW 5.8 mph - N/A   Clear
1:55 AM 31.5 °F 26.8 °F 16.7 °F 54% 30.01 in 10.0 mi NNW 4.6 mph - N/A   Clear
2:15 AM 30.9 °F 26.2 °F 17.4 °F 57% 30.02 in 10.0 mi NW 4.6 mph - N/A   Clear
3:15 AM 29.3 °F 25.6 °F 17.2 °F 61% 30.03 in 10.0 mi NW 3.5 mph - N/A   Clear
3:35 AM 28.4 °F - 18.3 °F 66% 30.03 in 10.0 mi Calm Calm - N/A   Clear
3:55 AM 26.6 °F 21.2 °F 20.5 °F 78% 30.04 in 10.0 mi West 4.6 mph - N/A   Clear
4:35 AM 27.5 °F 21.1 °F 19.0 °F 71% 30.05 in 10.0 mi WNW 5.8 mph - N/A   Clear
4:55 AM 25.3 °F 19.7 °F 19.4 °F 78% 30.06 in 10.0 mi West 4.6 mph - N/A   Clear
5:15 AM 25.0 °F 19.3 °F 19.2 °F 79% 30.07 in 10.0 mi West 4.6 mph - N/A   Clear
5:35 AM 24.6 °F 18.8 °F 19.6 °F 81% 30.08 in 10.0 mi West 4.6 mph - N/A   Clear
5:55 AM 24.6 °F 20.3 °F 19.4 °F 81% 30.09 in 10.0 mi West 3.5 mph - N/A   Clear
6:15 AM 25.3 °F 19.7 °F 19.2 °F 78% 30.09 in 10.0 mi WNW 4.6 mph - N/A   Clear
6:35 AM 25.2 °F 19.5 °F 18.9 °F 77% 30.10 in 10.0 mi West 4.6 mph - N/A   Clear
7:15 AM 25.5 °F 19.9 °F 19.8 °F 79% 30.12 in 10.0 mi WSW 4.6 mph - N/A   Clear
7:35 AM 26.4 °F 22.4 °F 20.7 °F 79% 30.12 in 10.0 mi West 3.5 mph - N/A   Clear
7:55 AM 28.4 °F 23.3 °F 20.8 °F 73% 30.14 in 10.0 mi West 4.6 mph - N/A   Clear
8:15 AM 30.6 °F 27.1 °F 20.8 °F 67% 30.15 in 10.0 mi WNW 3.5 mph - N/A   Clear
8:35 AM 32.2 °F 27.7 °F 19.9 °F 61% 30.15 in 10.0 mi NW 4.6 mph - N/A   Clear
8:55 AM 34.2 °F 28.2 °F 19.2 °F 54% 30.15 in 10.0 mi NW 6.9 mph - N/A   Clear
9:15 AM 35.8 °F 29.4 °F 18.5 °F 50% 30.14 in 10.0 mi NW 8.1 mph - N/A   Clear
9:35 AM 37.4 °F 31.4 °F 17.4 °F 44% 30.14 in 10.0 mi WNW 8.1 mph - N/A   Clear
9:55 AM 38.3 °F 30.1 °F 15.8 °F 40% 30.13 in 10.0 mi WNW 13.8 mph 18.4 mph N/A   Clear
10:15 AM 39.4 °F 31.1 °F 15.3 °F 38% 30.14 in 10.0 mi WNW 15.0 mph 20.7 mph N/A   Clear
10:35 AM 40.1 °F 33.2 °F 15.4 °F 37% 30.14 in 10.0 mi WNW 11.5 mph 19.6 mph N/A   Clear
10:55 AM 41.7 °F 38.8 °F 14.7 °F 34% 30.13 in 10.0 mi NW 4.6 mph - N/A   Clear
11:15 AM 42.3 °F 35.9 °F 13.1 °F 31% 30.13 in 10.0 mi NW 11.5 mph - N/A   Clear
11:35 AM 43.5 °F 38.9 °F 15.3 °F 32% 30.12 in 10.0 mi NNW 8.1 mph - N/A   Clear
11:55 AM 44.6 °F 39.2 °F 15.1 °F 30% 30.12 in 10.0 mi WNW 10.4 mph 17.3 mph N/A   Clear
12:15 PM 45.0 °F 39.3 °F 14.5 °F 29% 30.11 in 10.0 mi WNW 11.5 mph - N/A   Clear
12:35 PM 46.0 °F 40.6 °F 14.5 °F 28% 30.10 in 10.0 mi WNW 11.5 mph - N/A   Clear
12:55 PM 46.9 °F - 14.0 °F 27% 30.10 in 10.0 mi West 10.4 mph 18.4 mph N/A   Clear
1:15 PM 47.5 °F - 14.2 °F 26% 30.09 in 10.0 mi NNW 11.5 mph 17.3 mph N/A   Clear
1:35 PM 48.4 °F - 13.8 °F 25% 30.08 in 10.0 mi NNW 9.2 mph 19.6 mph N/A   Clear
1:55 PM 48.6 °F - 13.8 °F 25% 30.07 in 10.0 mi NNW 10.4 mph - N/A   Clear
2:15 PM 49.8 °F - 15.1 °F 25% 30.06 in 10.0 mi WNW 8.1 mph - N/A   Clear
2:35 PM 50.5 °F - 15.1 °F 24% 30.05 in 10.0 mi NW 8.1 mph - N/A   Clear
2:55 PM 51.3 °F - 14.9 °F 24% 30.05 in 10.0 mi NW 5.8 mph - N/A   Clear
3:15 PM 51.4 °F - 14.7 °F 23% 30.05 in 10.0 mi NW 4.6 mph 10.4 mph N/A   Clear
3:35 PM 52.2 °F - 14.2 °F 22% 30.05 in 10.0 mi West 11.5 mph - N/A   Clear
3:55 PM 52.2 °F - 14.9 °F 23% 30.04 in 10.0 mi NW 8.1 mph - N/A   Clear
4:15 PM 52.5 °F - 15.3 °F 23% 30.05 in 10.0 mi WNW 5.8 mph - N/A   Clear
4:35 PM 52.3 °F - 15.6 °F 23% 30.05 in 10.0 mi NW 9.2 mph - N/A   Clear
4:55 PM 52.7 °F - 16.0 °F 23% 30.05 in 10.0 mi West 9.2 mph - N/A   Clear
5:15 PM 52.2 °F - 16.3 °F 24% 30.05 in 10.0 mi WNW 5.8 mph - N/A   Clear
5:35 PM 51.8 °F - 16.3 °F 25% 30.05 in 10.0 mi West 6.9 mph - N/A   Clear
5:55 PM 50.5 °F - 18.3 °F 28% 30.06 in 10.0 mi West 4.6 mph - N/A   Clear
6:15 PM 48.7 °F - 18.9 °F 31% 30.05 in 10.0 mi West 3.5 mph - N/A   Clear
6:35 PM 47.8 °F - 18.9 °F 32% 30.06 in 10.0 mi Calm Calm - N/A   Clear
6:55 PM 45.0 °F - 19.2 °F 36% 30.07 in 10.0 mi Calm Calm - N/A   Clear
7:15 PM 43.7 °F - 19.8 °F 38% 30.08 in 10.0 mi Calm Calm - N/A   Clear
7:35 PM 43.7 °F - 19.9 °F 39% 30.08 in 10.0 mi Calm Calm - N/A   Clear
7:55 PM 42.4 °F - 20.8 °F 42% 30.08 in 10.0 mi Calm Calm - N/A   Clear
8:15 PM 43.3 °F - 20.7 °F 40% 30.08 in 10.0 mi Calm Calm - N/A   Clear
8:35 PM 43.3 °F - 19.8 °F 39% 30.08 in 10.0 mi Calm Calm - N/A   Clear
8:55 PM 41.5 °F 39.6 °F 22.3 °F 46% 30.08 in 10.0 mi South 3.5 mph - N/A   Clear
9:15 PM 39.7 °F 37.6 °F 20.8 °F 47% 30.09 in 10.0 mi South 3.5 mph - N/A   Clear
9:35 PM 39.9 °F 37.8 °F 20.5 °F 46% 30.09 in 10.0 mi South 3.5 mph - N/A   Clear
9:55 PM 41.0 °F 39.0 °F 20.1 °F 43% 30.09 in 10.0 mi South 3.5 mph - N/A   Clear
10:15 PM 41.9 °F 39.0 °F 19.6 °F 41% 30.09 in 10.0 mi South 4.6 mph - N/A   Clear
10:35 PM 41.5 °F 39.6 °F 19.8 °F 42% 30.08 in 10.0 mi South 3.5 mph - N/A   Clear
10:55 PM 41.4 °F 39.4 °F 20.3 °F 43% 30.09 in 10.0 mi South 3.5 mph - N/A   Scattered Clouds
11:15 PM 41.7 °F 39.8 °F 21.6 °F 45% 30.08 in 10.0 mi South 3.5 mph - N/A   Scattered Clouds
11:55 PM 40.8 °F 37.8 °F 20.1 °F 44% 30.08 in 10.0 mi South 4.6 mph - N/A   Clear